Year,Month,Day,Hour,Minute,Value (Times are PST for temperature in C)
2015,07,22,00,00,16.00
2015,07,22,00,01,16.00
2015,07,22,00,02,15.90
2015,07,22,00,03,15.90
2015,07,22,00,04,15.90
2015,07,22,00,05,15.90
2015,07,22,00,06,15.80
2015,07,22,00,07,15.80
2015,07,22,00,08,15.80
2015,07,22,00,09,15.80
2015,07,22,00,10,15.80
2015,07,22,00,11,15.80
2015,07,22,00,12,15.80
2015,07,22,00,13,15.80
2015,07,22,00,14,15.80
2015,07,22,00,15,15.80
2015,07,22,00,16,15.80
2015,07,22,00,17,15.80
2015,07,22,00,18,15.90
2015,07,22,00,19,15.90
2015,07,22,00,20,16.00
2015,07,22,00,21,16.00
2015,07,22,00,22,16.10
2015,07,22,00,23,16.10
2015,07,22,00,24,16.10
2015,07,22,00,25,16.20
2015,07,22,00,26,16.20
2015,07,22,00,27,16.20
2015,07,22,00,28,16.20
2015,07,22,00,29,16.20
2015,07,22,00,30,16.20
2015,07,22,00,31,16.20
2015,07,22,00,32,16.10
2015,07,22,00,33,16.10
2015,07,22,00,34,16.00
2015,07,22,00,35,16.00
2015,07,22,00,36,15.90
2015,07,22,00,37,15.80
2015,07,22,00,38,15.70
2015,07,22,00,39,15.70
2015,07,22,00,40,15.60
2015,07,22,00,41,15.50
2015,07,22,00,42,15.50
2015,07,22,00,43,15.40
2015,07,22,00,44,15.40
2015,07,22,00,45,15.40
2015,07,22,00,46,15.40
2015,07,22,00,47,15.40
2015,07,22,00,48,15.40
2015,07,22,00,49,15.40
2015,07,22,00,50,15.30
2015,07,22,00,51,15.30
2015,07,22,00,52,15.30
2015,07,22,00,53,15.30
2015,07,22,00,54,15.30
2015,07,22,00,55,15.20
2015,07,22,00,56,15.20
2015,07,22,00,57,15.10
2015,07,22,00,58,15.10
2015,07,22,00,59,15.10
2015,07,22,01,00,15.00
2015,07,22,01,01,15.00
2015,07,22,01,02,14.90
2015,07,22,01,03,14.90
2015,07,22,01,04,14.80
2015,07,22,01,05,14.80
2015,07,22,01,06,14.80
2015,07,22,01,07,14.80
2015,07,22,01,08,14.70
2015,07,22,01,09,14.70
2015,07,22,01,10,14.70
2015,07,22,01,11,14.70
2015,07,22,01,12,14.70
2015,07,22,01,13,14.70
2015,07,22,01,14,14.60
2015,07,22,01,15,14.60
2015,07,22,01,16,14.60
2015,07,22,01,17,14.60
2015,07,22,01,18,14.60
2015,07,22,01,19,14.50
2015,07,22,01,20,14.50
2015,07,22,01,21,14.50
2015,07,22,01,22,14.50
2015,07,22,01,23,14.40
2015,07,22,01,24,14.40
2015,07,22,01,25,14.30
2015,07,22,01,26,14.30
2015,07,22,01,27,14.30
2015,07,22,01,28,14.30
2015,07,22,01,29,14.20
2015,07,22,01,30,14.20
2015,07,22,01,31,14.20
2015,07,22,01,32,14.10
2015,07,22,01,33,14.10
2015,07,22,01,34,14.10
2015,07,22,01,35,14.10
2015,07,22,01,36,14.10
2015,07,22,01,37,14.10
2015,07,22,01,38,14.10
2015,07,22,01,39,14.10
2015,07,22,01,40,14.10
2015,07,22,01,41,14.20
2015,07,22,01,42,14.20
2015,07,22,01,43,14.20
2015,07,22,01,44,14.10
2015,07,22,01,45,14.10
2015,07,22,01,46,14.10
2015,07,22,01,47,14.00
2015,07,22,01,48,14.00
2015,07,22,01,49,13.90
2015,07,22,01,50,13.90
2015,07,22,01,51,13.80
2015,07,22,01,52,13.80
2015,07,22,01,53,13.80
2015,07,22,01,54,13.80
2015,07,22,01,55,13.80
2015,07,22,01,56,13.80
2015,07,22,01,57,13.80
2015,07,22,01,58,13.80
2015,07,22,01,59,13.80
2015,07,22,02,00,13.70
2015,07,22,02,01,13.70
2015,07,22,02,02,13.70
2015,07,22,02,03,13.70
2015,07,22,02,04,13.60
2015,07,22,02,05,13.60
2015,07,22,02,06,13.60
2015,07,22,02,07,13.50
2015,07,22,02,08,13.50
2015,07,22,02,09,13.50
2015,07,22,02,10,13.40
2015,07,22,02,11,13.40
2015,07,22,02,12,13.40
2015,07,22,02,13,13.50
2015,07,22,02,14,13.50
2015,07,22,02,15,13.50
2015,07,22,02,16,13.60
2015,07,22,02,17,13.60
2015,07,22,02,18,13.50
2015,07,22,02,19,13.50
2015,07,22,02,20,13.50
2015,07,22,02,21,13.40
2015,07,22,02,22,13.40
2015,07,22,02,23,13.40
2015,07,22,02,24,13.40
2015,07,22,02,25,13.40
2015,07,22,02,26,13.30
2015,07,22,02,27,13.30
2015,07,22,02,28,13.30
2015,07,22,02,29,13.30
2015,07,22,02,30,13.30
2015,07,22,02,31,13.40
2015,07,22,02,32,13.40
2015,07,22,02,33,13.40
2015,07,22,02,34,13.40
2015,07,22,02,35,13.40
2015,07,22,02,36,13.40
2015,07,22,02,37,13.40
2015,07,22,02,38,13.40
2015,07,22,02,39,13.30
2015,07,22,02,40,13.30
2015,07,22,02,41,13.30
2015,07,22,02,42,13.30
2015,07,22,02,43,13.30
2015,07,22,02,44,13.20
2015,07,22,02,45,13.20
2015,07,22,02,46,13.20
2015,07,22,02,47,13.20
2015,07,22,02,48,13.10
2015,07,22,02,49,13.10
2015,07,22,02,50,13.10
2015,07,22,02,51,13.10
2015,07,22,02,52,13.10
2015,07,22,02,53,13.00
2015,07,22,02,54,13.00
2015,07,22,02,55,12.90
2015,07,22,02,56,12.90
2015,07,22,02,57,12.90
2015,07,22,02,58,12.90
2015,07,22,02,59,12.90
2015,07,22,03,00,12.80
2015,07,22,03,01,12.80
2015,07,22,03,02,12.80
2015,07,22,03,03,12.80
2015,07,22,03,04,12.70
2015,07,22,03,05,12.70
2015,07,22,03,06,12.70
2015,07,22,03,07,12.70
2015,07,22,03,08,12.60
2015,07,22,03,09,12.60
2015,07,22,03,10,12.60
2015,07,22,03,11,12.60
2015,07,22,03,12,12.60
2015,07,22,03,13,12.60
2015,07,22,03,14,12.60
2015,07,22,03,15,12.60
2015,07,22,03,16,12.60
2015,07,22,03,17,12.60
2015,07,22,03,18,12.50
2015,07,22,03,19,12.50
2015,07,22,03,20,12.50
2015,07,22,03,21,12.50
2015,07,22,03,22,12.50
2015,07,22,03,23,12.50
2015,07,22,03,24,12.50
2015,07,22,03,25,12.50
2015,07,22,03,26,12.60
2015,07,22,03,27,12.60
2015,07,22,03,28,12.60
2015,07,22,03,29,12.60
2015,07,22,03,30,12.60
2015,07,22,03,31,12.60
2015,07,22,03,32,12.60
2015,07,22,03,33,12.60
2015,07,22,03,34,12.60
2015,07,22,03,35,12.50
2015,07,22,03,36,12.50
2015,07,22,03,37,12.40
2015,07,22,03,38,12.40
2015,07,22,03,39,12.40
2015,07,22,03,40,12.40
2015,07,22,03,41,12.40
2015,07,22,03,42,12.40
2015,07,22,03,43,12.40
2015,07,22,03,44,12.30
2015,07,22,03,45,12.30
2015,07,22,03,46,12.30
2015,07,22,03,47,12.30
2015,07,22,03,48,12.30
2015,07,22,03,49,12.30
2015,07,22,03,50,12.30
2015,07,22,03,51,12.30
2015,07,22,03,52,12.40
2015,07,22,03,53,12.50
2015,07,22,03,54,12.60
2015,07,22,03,55,12.70
2015,07,22,03,56,12.80
2015,07,22,03,57,12.90
2015,07,22,03,58,12.80
2015,07,22,03,59,12.80
2015,07,22,04,00,12.80
2015,07,22,04,01,12.80
2015,07,22,04,02,12.80
2015,07,22,04,03,12.80
2015,07,22,04,04,12.80
2015,07,22,04,05,12.80
2015,07,22,04,06,12.80
2015,07,22,04,07,12.80
2015,07,22,04,08,12.80
2015,07,22,06,23,11.60
2015,07,22,06,24,11.70
2015,07,22,06,25,11.60
2015,07,22,06,26,11.70
2015,07,22,06,27,11.70
2015,07,22,06,28,11.70
2015,07,22,06,29,11.70
2015,07,22,06,30,11.80
2015,07,22,06,31,11.80
2015,07,22,06,32,11.90
2015,07,22,06,33,12.00
2015,07,22,06,34,12.00
2015,07,22,06,35,12.10
2015,07,22,06,36,12.20
2015,07,22,06,37,12.30
2015,07,22,06,38,12.30
2015,07,22,06,39,12.40
2015,07,22,06,40,12.50
2015,07,22,06,41,12.50
2015,07,22,06,42,12.60
2015,07,22,06,43,12.60
2015,07,22,06,44,12.70
2015,07,22,06,45,12.80
2015,07,22,06,46,12.90
2015,07,22,06,47,12.90
2015,07,22,06,48,13.00
2015,07,22,06,49,13.10
2015,07,22,06,50,13.10
2015,07,22,06,51,13.20
2015,07,22,06,52,13.40
2015,07,22,06,53,13.50
2015,07,22,06,54,13.60
2015,07,22,06,55,13.60
2015,07,22,06,56,13.70
2015,07,22,06,57,13.80
2015,07,22,06,58,13.80
2015,07,22,06,59,14.00
2015,07,22,07,00,14.10
2015,07,22,07,01,14.20
2015,07,22,07,02,14.30
2015,07,22,07,03,14.40
2015,07,22,07,04,14.50
2015,07,22,07,05,14.60
2015,07,22,07,06,14.60
2015,07,22,07,07,14.70
2015,07,22,07,08,14.80
2015,07,22,07,09,14.80
2015,07,22,07,10,14.80
2015,07,22,07,11,14.90
2015,07,22,07,12,15.00
2015,07,22,07,13,15.10
2015,07,22,07,14,15.20
2015,07,22,07,15,15.20
2015,07,22,07,16,15.30
2015,07,22,07,17,15.40
2015,07,22,07,18,15.40
2015,07,22,07,19,15.50
2015,07,22,07,20,15.50
2015,07,22,07,21,15.50
2015,07,22,07,22,15.50
2015,07,22,07,23,15.50
2015,07,22,07,24,15.50
2015,07,22,07,25,15.60
2015,07,22,07,26,15.60
2015,07,22,07,27,15.70
2015,07,22,07,28,15.70
2015,07,22,07,29,15.70
2015,07,22,07,30,15.80
2015,07,22,07,31,15.80
2015,07,22,07,32,15.80
2015,07,22,07,33,15.90
2015,07,22,07,34,15.90
2015,07,22,07,35,15.90
2015,07,22,07,36,15.90
2015,07,22,07,37,15.90
2015,07,22,07,38,15.90
2015,07,22,07,39,16.00
2015,07,22,07,40,16.00
2015,07,22,07,41,16.00
2015,07,22,07,42,16.00
2015,07,22,07,43,16.00
2015,07,22,07,44,16.10
2015,07,22,07,45,16.10
2015,07,22,07,46,16.00
2015,07,22,07,47,16.00
2015,07,22,07,48,16.00
2015,07,22,07,49,16.10
2015,07,22,07,50,16.10
2015,07,22,07,51,16.20
2015,07,22,07,52,16.30
2015,07,22,07,53,16.40
2015,07,22,07,54,16.50
2015,07,22,07,55,16.60
2015,07,22,07,56,16.70
2015,07,22,07,57,16.80
2015,07,22,07,58,16.80
2015,07,22,07,59,16.90
2015,07,22,08,00,17.00
2015,07,22,08,01,17.10
2015,07,22,08,02,17.20
2015,07,22,08,03,17.20
2015,07,22,08,04,17.20
2015,07,22,08,05,17.20
2015,07,22,08,06,17.20
2015,07,22,08,07,17.20
2015,07,22,08,08,17.20
2015,07,22,08,09,17.20
2015,07,22,08,10,17.20
2015,07,22,08,11,17.20
2015,07,22,08,12,17.20
2015,07,22,08,13,17.20
2015,07,22,08,14,17.20
2015,07,22,08,15,17.20
2015,07,22,08,16,17.20
2015,07,22,08,17,17.20
2015,07,22,08,18,17.20
2015,07,22,08,19,17.20
2015,07,22,08,20,17.20
2015,07,22,08,21,17.20
2015,07,22,08,22,17.30
2015,07,22,08,23,17.30
2015,07,22,08,24,17.40
2015,07,22,08,25,17.50
2015,07,22,08,26,17.60
2015,07,22,08,27,17.70
2015,07,22,08,28,17.80
2015,07,22,08,29,17.90
2015,07,22,08,30,17.90
2015,07,22,08,31,17.90
2015,07,22,08,32,17.90
2015,07,22,08,33,17.80
2015,07,22,08,34,17.80
2015,07,22,08,35,17.70
2015,07,22,08,36,17.70
2015,07,22,08,37,17.60
2015,07,22,08,38,17.50
2015,07,22,08,39,17.40
2015,07,22,08,40,17.30
2015,07,22,08,41,17.30
2015,07,22,08,42,17.30
2015,07,22,08,43,17.30
2015,07,22,08,44,17.30
2015,07,22,08,45,17.30
2015,07,22,08,46,17.30
2015,07,22,08,47,17.30
2015,07,22,08,48,17.40
2015,07,22,08,49,17.40
2015,07,22,08,50,17.50
2015,07,22,08,51,17.60
2015,07,22,08,52,17.70
2015,07,22,08,53,17.90
2015,07,22,08,54,18.10
2015,07,22,08,55,18.20
2015,07,22,08,56,18.40
2015,07,22,08,57,18.50
2015,07,22,08,58,18.70
2015,07,22,08,59,18.80
2015,07,22,09,00,18.90
2015,07,22,09,01,19.00
2015,07,22,09,02,19.10
2015,07,22,09,03,19.10
2015,07,22,09,04,19.10
2015,07,22,09,05,18.90
2015,07,22,09,06,18.70
2015,07,22,09,07,18.60
2015,07,22,09,08,18.50
2015,07,22,09,09,18.50
2015,07,22,09,10,18.60
2015,07,22,09,11,18.60
2015,07,22,09,12,18.60
2015,07,22,09,13,18.60
2015,07,22,09,14,18.60
2015,07,22,09,15,18.60
2015,07,22,09,16,18.70
2015,07,22,09,17,18.80
2015,07,22,09,18,18.80
2015,07,22,09,19,18.90
2015,07,22,09,20,19.00
2015,07,22,09,21,19.10
2015,07,22,09,22,19.20
2015,07,22,09,23,19.20
2015,07,22,09,24,19.20
2015,07,22,09,25,19.20
2015,07,22,09,26,19.20
2015,07,22,09,27,19.20
2015,07,22,09,28,19.30
2015,07,22,09,29,19.30
2015,07,22,09,30,19.30
2015,07,22,09,31,19.40
2015,07,22,09,32,19.40
2015,07,22,09,33,19.40
2015,07,22,09,34,19.40
2015,07,22,09,35,19.40
2015,07,22,09,36,19.40
2015,07,22,09,37,19.30
2015,07,22,09,38,19.20
2015,07,22,09,39,19.10
2015,07,22,09,40,19.10
2015,07,22,09,41,19.10
2015,07,22,09,42,19.10
2015,07,22,09,43,19.10
2015,07,22,09,44,19.00
2015,07,22,09,45,19.00
2015,07,22,09,46,18.90
2015,07,22,09,47,18.90
2015,07,22,09,48,19.00
2015,07,22,09,49,19.10
2015,07,22,09,50,19.10
2015,07,22,09,51,19.10
2015,07,22,09,52,19.20
2015,07,22,09,53,19.20
2015,07,22,09,54,19.20
2015,07,22,09,55,19.20
2015,07,22,09,56,19.20
2015,07,22,09,57,19.10
2015,07,22,09,58,19.10
2015,07,22,09,59,19.10
2015,07,22,10,00,19.10
2015,07,22,10,01,19.10
2015,07,22,10,02,19.00
2015,07,22,10,03,19.00
2015,07,22,10,04,18.90
2015,07,22,10,05,18.90
2015,07,22,10,06,19.00
2015,07,22,10,07,19.00
2015,07,22,10,08,19.00
2015,07,22,10,09,19.10
2015,07,22,10,10,19.00
2015,07,22,10,11,19.00
2015,07,22,10,12,18.90
2015,07,22,10,13,18.80
2015,07,22,10,14,18.80
2015,07,22,10,15,18.70
2015,07,22,10,16,18.70
2015,07,22,10,17,18.60
2015,07,22,10,18,18.60
2015,07,22,10,19,18.60
2015,07,22,10,20,18.50
2015,07,22,10,21,18.50
2015,07,22,10,22,18.50
2015,07,22,10,23,18.40
2015,07,22,10,24,18.40
2015,07,22,10,25,18.40
2015,07,22,10,26,18.30
2015,07,22,10,27,18.30
2015,07,22,10,28,18.20
2015,07,22,10,29,18.20
2015,07,22,10,30,18.10
2015,07,22,10,31,18.10
2015,07,22,10,32,18.10
2015,07,22,10,33,18.10
2015,07,22,10,34,18.20
2015,07,22,10,35,18.30
2015,07,22,10,36,18.40
2015,07,22,10,37,18.40
2015,07,22,10,38,18.40
2015,07,22,10,39,18.40
2015,07,22,10,40,18.40
2015,07,22,10,41,18.50
2015,07,22,10,42,18.60
2015,07,22,10,43,18.70
2015,07,22,10,44,18.80
2015,07,22,10,45,18.90
2015,07,22,10,46,18.90
2015,07,22,10,47,18.90
2015,07,22,10,48,18.80
2015,07,22,10,49,18.80
2015,07,22,10,50,18.70
2015,07,22,10,51,18.70
2015,07,22,10,52,18.60
2015,07,22,10,53,18.60
2015,07,22,10,54,18.50
2015,07,22,10,55,18.50
2015,07,22,10,56,18.50
2015,07,22,10,57,18.50
2015,07,22,10,58,18.60
2015,07,22,10,59,18.60
2015,07,22,11,00,18.60
2015,07,22,11,01,18.60
2015,07,22,11,02,18.60
2015,07,22,11,03,18.60
2015,07,22,11,04,18.60
2015,07,22,11,05,18.60
2015,07,22,11,06,18.70
2015,07,22,11,07,18.70
2015,07,22,11,08,18.70
2015,07,22,11,09,18.70
2015,07,22,11,10,18.80
2015,07,22,11,11,18.80
2015,07,22,11,12,19.00
2015,07,22,11,13,19.10
2015,07,22,11,14,19.20
2015,07,22,11,15,19.20
2015,07,22,11,16,19.20
2015,07,22,11,17,19.10
2015,07,22,11,18,19.00
2015,07,22,11,19,18.90
2015,07,22,11,20,18.80
2015,07,22,11,21,18.80
2015,07,22,11,22,18.90
2015,07,22,11,23,18.90
2015,07,22,11,24,18.90
2015,07,22,11,25,19.00
2015,07,22,11,26,18.90
2015,07,22,11,27,18.90
2015,07,22,11,28,18.90
2015,07,22,11,29,18.90
2015,07,22,11,30,18.90
2015,07,22,11,31,18.90
2015,07,22,11,32,19.00
2015,07,22,11,33,19.00
2015,07,22,11,34,19.10
2015,07,22,11,35,19.10
2015,07,22,11,36,19.20
2015,07,22,11,37,19.30
2015,07,22,11,38,19.30
2015,07,22,11,39,19.40
2015,07,22,11,40,19.50
2015,07,22,11,41,19.50
2015,07,22,11,42,19.60
2015,07,22,11,43,19.50
2015,07,22,11,44,19.50
2015,07,22,11,45,19.50
2015,07,22,11,46,19.50
2015,07,22,11,47,19.60
2015,07,22,11,48,19.70
2015,07,22,11,49,19.80
2015,07,22,11,50,19.80
2015,07,22,11,51,19.90
2015,07,22,11,52,20.00
2015,07,22,11,53,20.10
2015,07,22,11,54,20.10
2015,07,22,11,55,20.20
2015,07,22,11,56,20.30
2015,07,22,11,57,20.20
2015,07,22,11,58,20.20
2015,07,22,11,59,20.20
2015,07,22,12,00,20.20
2015,07,22,12,01,20.30
2015,07,22,12,02,20.40
2015,07,22,12,03,20.50
2015,07,22,12,04,20.60
2015,07,22,12,05,20.70
2015,07,22,12,06,20.80
2015,07,22,12,07,20.90
2015,07,22,12,08,21.00
2015,07,22,12,09,21.10
2015,07,22,12,10,21.10
2015,07,22,12,11,21.10
2015,07,22,12,12,21.10
2015,07,22,12,13,21.00
2015,07,22,12,14,20.90
2015,07,22,12,15,20.80
2015,07,22,12,16,20.80
2015,07,22,12,17,20.90
2015,07,22,12,18,21.00
2015,07,22,12,19,21.00
2015,07,22,12,20,21.10
2015,07,22,12,21,21.10
2015,07,22,12,22,21.00
2015,07,22,12,23,20.90
2015,07,22,12,24,20.80
2015,07,22,12,25,20.80
2015,07,22,12,26,20.80
2015,07,22,12,27,20.70
2015,07,22,12,28,20.70
2015,07,22,12,29,20.60
2015,07,22,12,30,20.60
2015,07,22,12,31,20.70
2015,07,22,12,32,20.70
2015,07,22,12,33,20.70
2015,07,22,12,34,20.80
2015,07,22,12,35,20.80
2015,07,22,12,36,20.80
2015,07,22,12,37,20.80
2015,07,22,12,38,20.80
2015,07,22,12,39,20.80
2015,07,22,12,40,20.70
2015,07,22,12,41,20.80
2015,07,22,12,42,20.90
2015,07,22,12,43,21.00
2015,07,22,12,44,21.10
2015,07,22,12,45,21.20
2015,07,22,12,46,21.10
2015,07,22,12,47,21.00
2015,07,22,12,48,20.90
2015,07,22,12,49,20.90
2015,07,22,12,50,20.80
2015,07,22,12,51,20.70
2015,07,22,12,52,20.70
2015,07,22,12,53,20.80
2015,07,22,12,54,20.80
2015,07,22,12,55,20.90
2015,07,22,12,56,21.00
2015,07,22,12,57,21.10
2015,07,22,12,58,21.10
2015,07,22,12,59,21.10
2015,07,22,13,00,21.00
2015,07,22,13,01,21.00
2015,07,22,13,02,20.90
2015,07,22,13,03,20.80
2015,07,22,13,04,20.70
2015,07,22,13,05,20.60
2015,07,22,13,06,20.60
2015,07,22,13,07,20.70
2015,07,22,13,08,20.70
2015,07,22,13,09,20.70
2015,07,22,13,10,20.60
2015,07,22,13,11,20.50
2015,07,22,13,12,20.40
2015,07,22,13,13,20.50
2015,07,22,13,14,20.70
2015,07,22,13,15,20.80
2015,07,22,13,16,20.80
2015,07,22,13,17,20.80
2015,07,22,13,18,20.90
2015,07,22,13,19,20.90
2015,07,22,13,20,20.90
2015,07,22,13,21,20.90
2015,07,22,13,22,20.90
2015,07,22,13,23,20.80
2015,07,22,13,24,20.80
2015,07,22,13,25,20.90
2015,07,22,13,26,20.90
2015,07,22,13,27,20.90
2015,07,22,13,28,21.00
2015,07,22,13,29,21.00
2015,07,22,13,30,21.10
2015,07,22,13,31,21.10
2015,07,22,13,32,21.20
2015,07,22,13,33,21.30
2015,07,22,13,34,21.20
2015,07,22,13,35,21.20
2015,07,22,13,36,21.20
2015,07,22,13,37,21.20
2015,07,22,13,38,21.10
2015,07,22,13,39,21.00
2015,07,22,13,40,20.90
2015,07,22,13,41,20.80
2015,07,22,13,42,20.70
2015,07,22,13,43,20.70
2015,07,22,13,44,20.60
2015,07,22,13,45,20.60
2015,07,22,13,46,20.60
2015,07,22,13,47,20.50
2015,07,22,13,48,20.50
2015,07,22,13,49,20.50
2015,07,22,13,50,20.60
2015,07,22,13,51,20.60
2015,07,22,13,52,20.60
2015,07,22,13,53,20.60
2015,07,22,13,54,20.50
2015,07,22,13,55,20.50
2015,07,22,13,56,20.40
2015,07,22,13,57,20.50
2015,07,22,13,58,20.50
2015,07,22,13,59,20.60
2015,07,22,14,00,20.70
2015,07,22,14,01,20.80
2015,07,22,14,02,20.90
2015,07,22,14,03,21.00
2015,07,22,14,04,21.10
2015,07,22,14,05,21.20
2015,07,22,14,06,21.50
2015,07,22,14,07,21.70
2015,07,22,14,08,21.80
2015,07,22,14,09,21.80
2015,07,22,14,10,21.90
2015,07,22,14,11,21.80
2015,07,22,14,12,21.70
2015,07,22,14,13,21.60
2015,07,22,14,14,21.60
2015,07,22,14,15,21.50
2015,07,22,14,16,21.50
2015,07,22,14,17,21.60
2015,07,22,14,18,21.70
2015,07,22,14,19,21.70
2015,07,22,14,20,21.80
2015,07,22,14,21,21.70
2015,07,22,14,22,21.70
2015,07,22,14,23,21.70
2015,07,22,14,24,21.70
2015,07,22,14,25,21.70
2015,07,22,14,26,21.70
2015,07,22,14,27,21.70
2015,07,22,14,28,21.70
2015,07,22,14,29,21.70
2015,07,22,14,30,21.70
2015,07,22,14,31,21.70
2015,07,22,14,32,21.70
2015,07,22,14,33,21.70
2015,07,22,14,34,21.80
2015,07,22,14,35,21.90
2015,07,22,14,36,22.00
2015,07,22,14,37,22.10
2015,07,22,14,38,22.10
2015,07,22,14,39,22.10
2015,07,22,14,40,22.10
2015,07,22,14,41,22.10
2015,07,22,14,42,22.10
2015,07,22,14,43,22.10
2015,07,22,14,44,22.10
2015,07,22,14,45,22.00
2015,07,22,14,46,21.90
2015,07,22,14,47,21.80
2015,07,22,14,48,21.80
2015,07,22,14,49,21.70
2015,07,22,14,50,21.70
2015,07,22,14,51,21.70
2015,07,22,14,52,21.70
2015,07,22,14,53,21.70
2015,07,22,14,54,21.70
2015,07,22,14,55,21.70
2015,07,22,14,56,21.70
2015,07,22,14,57,21.70
2015,07,22,14,58,21.70
2015,07,22,14,59,21.70
2015,07,22,15,00,21.70
2015,07,22,15,01,21.80
2015,07,22,15,02,21.90
2015,07,22,15,03,22.00
2015,07,22,15,04,22.10
2015,07,22,15,05,22.20
2015,07,22,15,06,22.20
2015,07,22,15,07,22.30
2015,07,22,15,08,22.50
2015,07,22,15,09,22.60
2015,07,22,15,10,22.60
2015,07,22,15,11,22.70
2015,07,22,15,12,22.70
2015,07,22,15,13,22.80
2015,07,22,15,14,22.90
2015,07,22,15,15,23.00
2015,07,22,15,16,23.10
2015,07,22,15,17,23.20
2015,07,22,15,18,23.30
2015,07,22,15,19,23.40
2015,07,22,15,20,23.60
2015,07,22,15,21,23.70
2015,07,22,15,22,23.80
2015,07,22,15,23,23.80
2015,07,22,15,24,23.80
2015,07,22,15,25,23.90
2015,07,22,15,26,23.90
2015,07,22,15,27,23.80
2015,07,22,15,28,23.60
2015,07,22,15,29,23.50
2015,07,22,15,30,23.40
2015,07,22,15,31,23.40
2015,07,22,15,32,23.40
2015,07,22,15,33,23.30
2015,07,22,15,34,23.30
2015,07,22,15,35,23.30
2015,07,22,15,36,23.30
2015,07,22,15,37,23.20
2015,07,22,15,38,23.20
2015,07,22,15,39,23.20
2015,07,22,15,40,23.10
2015,07,22,15,41,23.00
2015,07,22,15,42,23.00
2015,07,22,15,43,23.10
2015,07,22,15,44,23.20
2015,07,22,15,45,23.20
2015,07,22,15,46,23.30
2015,07,22,15,47,23.30
2015,07,22,15,48,23.20
2015,07,22,15,49,23.30
2015,07,22,15,50,23.20
2015,07,22,15,51,23.20
2015,07,22,15,52,23.20
2015,07,22,15,53,23.30
2015,07,22,15,54,23.40
2015,07,22,15,55,23.40
2015,07,22,15,56,23.50
2015,07,22,15,57,23.60
2015,07,22,15,58,23.70
2015,07,22,15,59,23.60
2015,07,22,16,00,23.40
2015,07,22,16,01,23.40
2015,07,22,16,02,23.40
2015,07,22,16,03,23.40
2015,07,22,16,04,23.40
2015,07,22,16,05,23.40
2015,07,22,16,06,23.30
2015,07,22,16,07,23.20
2015,07,22,16,08,23.20
2015,07,22,16,09,23.10
2015,07,22,16,10,23.10
2015,07,22,16,11,23.20
2015,07,22,16,12,23.40
2015,07,22,16,13,23.40
2015,07,22,16,14,23.40
2015,07,22,16,15,23.40
2015,07,22,16,16,23.50
2015,07,22,16,17,23.60
2015,07,22,16,18,23.70
2015,07,22,16,19,23.70
2015,07,22,16,20,23.60
2015,07,22,16,21,23.50
2015,07,22,16,22,23.40
2015,07,22,16,23,23.40
2015,07,22,16,24,23.30
2015,07,22,16,25,23.30
2015,07,22,16,26,23.30
2015,07,22,16,27,23.30
2015,07,22,16,28,23.40
2015,07,22,16,29,23.40
2015,07,22,16,30,23.40
2015,07,22,16,31,23.40
2015,07,22,16,32,23.40
2015,07,22,16,33,23.40
2015,07,22,16,34,23.40
2015,07,22,16,35,23.40
2015,07,22,16,36,23.30
2015,07,22,16,37,23.20
2015,07,22,16,38,23.00
2015,07,22,16,39,22.80
2015,07,22,16,40,22.60
2015,07,22,16,41,22.50
2015,07,22,16,42,22.50
2015,07,22,16,43,22.40
2015,07,22,16,44,22.30
2015,07,22,16,45,22.30
2015,07,22,16,46,22.30
2015,07,22,16,47,22.30
2015,07,22,16,48,22.30
2015,07,22,16,49,22.40
2015,07,22,16,50,22.50
2015,07,22,16,51,22.60
2015,07,22,16,52,22.70
2015,07,22,16,53,22.80
2015,07,22,16,54,22.80
2015,07,22,16,55,22.90
2015,07,22,16,56,23.00
2015,07,22,16,57,23.00
2015,07,22,16,58,23.00
2015,07,22,16,59,23.00
2015,07,22,17,00,23.10
2015,07,22,17,01,23.20
2015,07,22,17,02,23.30
2015,07,22,17,03,23.50
2015,07,22,17,04,23.60
2015,07,22,17,05,23.70
2015,07,22,17,06,23.80
2015,07,22,17,07,23.80
2015,07,22,17,08,23.80
2015,07,22,17,09,23.80
2015,07,22,17,10,23.70
2015,07,22,17,11,23.70
2015,07,22,17,12,23.60
2015,07,22,17,13,23.60
2015,07,22,17,14,23.60
2015,07,22,17,15,23.50
2015,07,22,17,16,23.40
2015,07,22,17,17,23.30
2015,07,22,17,18,23.20
2015,07,22,17,19,23.10
2015,07,22,17,20,23.00
2015,07,22,17,21,22.90
2015,07,22,17,22,22.90
2015,07,22,17,23,22.80
2015,07,22,17,24,22.80
2015,07,22,17,25,22.80
2015,07,22,17,26,22.80
2015,07,22,17,27,22.80
2015,07,22,17,28,22.80
2015,07,22,17,29,22.80
2015,07,22,17,30,22.80
2015,07,22,17,31,22.80
2015,07,22,17,32,22.70
2015,07,22,17,33,22.70
2015,07,22,17,34,22.60
2015,07,22,17,35,22.60
2015,07,22,17,36,22.50
2015,07,22,17,37,22.40
2015,07,22,17,38,22.30
2015,07,22,17,39,22.20
2015,07,22,17,40,22.10
2015,07,22,17,41,22.00
2015,07,22,17,42,22.00
2015,07,22,17,43,21.90
2015,07,22,17,44,21.80
2015,07,22,17,45,21.80
2015,07,22,17,46,21.80
2015,07,22,17,47,21.80
2015,07,22,17,48,21.70
2015,07,22,17,49,21.70
2015,07,22,17,50,21.70
2015,07,22,17,51,21.60
2015,07,22,17,52,21.60
2015,07,22,17,53,21.60
2015,07,22,17,54,21.70
2015,07,22,17,55,21.70
2015,07,22,17,56,21.70
2015,07,22,17,57,21.70
2015,07,22,17,58,21.80
2015,07,22,17,59,21.80
2015,07,22,18,00,21.80
2015,07,22,18,01,21.90
2015,07,22,18,02,21.90
2015,07,22,18,03,21.80
2015,07,22,18,04,21.80
2015,07,22,18,05,21.90
2015,07,22,18,06,21.90
2015,07,22,18,07,21.90
2015,07,22,18,08,22.00
2015,07,22,18,09,22.00
2015,07,22,18,10,22.00
2015,07,22,18,11,22.00
2015,07,22,18,12,22.00
2015,07,22,18,13,22.00
2015,07,22,18,14,22.00
2015,07,22,18,15,22.00
2015,07,22,18,16,22.00
2015,07,22,18,17,22.00
2015,07,22,18,18,22.00
2015,07,22,18,19,22.00
2015,07,22,18,20,22.00
2015,07,22,18,21,22.00
2015,07,22,18,22,21.90
2015,07,22,18,23,21.80
2015,07,22,18,24,21.80
2015,07,22,18,25,21.80
2015,07,22,18,26,21.80
2015,07,22,18,27,21.80
2015,07,22,18,28,21.80
2015,07,22,18,29,21.80
2015,07,22,18,30,21.70
2015,07,22,18,31,21.70
2015,07,22,18,32,21.70
2015,07,22,18,33,21.70
2015,07,22,18,34,21.60
2015,07,22,18,35,21.60
2015,07,22,18,36,21.50
2015,07,22,18,37,21.40
2015,07,22,18,38,21.40
2015,07,22,18,39,21.30
2015,07,22,18,40,21.30
2015,07,22,18,41,21.20
2015,07,22,18,42,21.20
2015,07,22,18,43,21.20
2015,07,22,18,44,21.10
2015,07,22,18,45,21.10
2015,07,22,18,46,21.00
2015,07,22,18,47,21.00
2015,07,22,18,48,20.90
2015,07,22,18,49,20.90
2015,07,22,18,50,20.90
2015,07,22,18,51,20.90
2015,07,22,18,52,20.90
2015,07,22,18,53,20.90
2015,07,22,18,54,20.90
2015,07,22,18,55,20.90
2015,07,22,18,56,20.90
2015,07,22,18,57,20.90
2015,07,22,18,58,20.90
2015,07,22,18,59,20.90
2015,07,22,19,00,20.90
2015,07,22,19,01,20.80
2015,07,22,19,02,20.80
2015,07,22,19,03,20.80
2015,07,22,19,04,20.80
2015,07,22,19,05,20.80
2015,07,22,19,06,20.80
2015,07,22,19,07,20.80
2015,07,22,19,08,20.80
2015,07,22,19,09,20.80
2015,07,22,19,10,20.80
2015,07,22,19,11,20.80
2015,07,22,19,12,20.80
2015,07,22,19,13,20.80
2015,07,22,19,14,20.80
2015,07,22,19,15,20.80
2015,07,22,19,16,20.80
2015,07,22,19,17,20.80
2015,07,22,19,18,20.70
2015,07,22,19,19,20.70
2015,07,22,19,20,20.60
2015,07,22,19,21,20.50
2015,07,22,19,22,20.50
2015,07,22,19,23,20.40
2015,07,22,19,24,20.40
2015,07,22,19,25,20.30
2015,07,22,19,26,20.30
2015,07,22,19,27,20.30
2015,07,22,19,28,20.30
2015,07,22,19,29,20.30
2015,07,22,19,30,20.20
2015,07,22,19,31,20.20
2015,07,22,19,32,20.20
2015,07,22,19,33,20.20